Location: Cosy Dell
(34.2789°N, 117.4537°W)
Time: 12:01:49
(UTC+00:00)

Cosmos 1812 Rocket - Pass Details

Date: 14 July 2020
Orbit: 605 x 633 km, 82.5° (Epoch: 08 August)

Event Time Altitude Azimuth Distance (km) Brightness Sun altitude
Rises 03:27:32 0° 354° (N) 2,864 7.5 -5.3°
Reaches altitude 10° 03:29:45 10° 356° (N) 1,957 6.7 -5.7°
Maximum altitude 03:34:05 81° 83° (E) 617 3.5 -6.4°
Drops below altitude 10° 03:38:24 10° 171° (S) 1,950 5.7 -7.2°
Sets 03:40:36 0° 173° (S) 2,853 6.6 -7.6°
